This is the latest recevied weather packets stored in our database for station/object VE1DX. If no packets are shown the sender has not sent any weather packets the latest 10 day(s).
| Time | Temp. | Humidity | Pressure | Rain* | Wind** | Luminosity | Snow |
|---|---|---|---|---|---|---|---|
| 1788526217 | 19.44° C | 100% | 1008.1 hPa | 3.56 mm | - | - | - |
| 1788525917 | 19.44° C | 100% | 1008.1 hPa | 3.3 mm | - | - | - |
| 1788525617 | 18.89° C | 100% | 1008.1 hPa | 3.3 mm | - | - | - |
| 1788525317 | 18.89° C | 100% | 1008.3 hPa | 3.3 mm | - | - | - |
| 1788525017 | 18.89° C | 100% | 1008.4 hPa | 3.3 mm | - | - | - |
| 1788524717 | 18.89° C | 100% | 1008.4 hPa | 3.3 mm | - | - | - |
| 1788524417 | 18.89° C | 100% | 1008.6 hPa | 3.3 mm | - | - | - |
| 1788524117 | 18.89° C | 100% | 1008.7 hPa | 3.05 mm | - | - | - |
| 1788523817 | 18.89° C | 100% | 1008.7 hPa | 3.05 mm | - | - | - |
| 1788523517 | 18.89° C | 100% | 1008.8 hPa | 2.54 mm | - | - | - |
| 1788523217 | 18.89° C | 100% | 1008.8 hPa | 2.29 mm | - | - | - |
| 1788522917 | 18.89° C | 100% | 1008.9 hPa | 2.29 mm | - | - | - |
| 1788522617 | 18.89° C | 100% | 1009 hPa | 2.29 mm | - | - | - |
| 1788522317 | 18.89° C | 100% | 1009 hPa | 3.05 mm | - | - | - |
| 1788522017 | 18.89° C | 100% | 1009 hPa | 3.3 mm | - | - | - |
| 1788521717 | 18.89° C | 100% | 1009.1 hPa | 3.3 mm | - | - | - |
| 1788521417 | 18.89° C | 100% | 1009.4 hPa | 3.56 mm | - | - | - |
| 1788521117 | 18.33° C | 100% | 1009.4 hPa | 3.56 mm | - | - | - |
| 1788520817 | 18.33° C | 100% | 1009.5 hPa | 4.32 mm | - | - | - |
| 1788520517 | 18.33° C | 100% | 1009.5 hPa | 5.33 mm | - | - | - |
| 1788520217 | 18.33° C | 100% | 1009.4 hPa | 6.1 mm | - | - | - |
| 1788519917 | 18.33° C | 100% | 1009.4 hPa | 6.6 mm | - | - | - |
| 1788519617 | 18.33° C | 100% | 1009.5 hPa | 7.62 mm | - | - | - |
| 1788519317 | 17.78° C | 100% | 1009.6 hPa | 8.13 mm | - | - | - |
| 1788519017 | 17.78° C | 100% | 1009.6 hPa | 8.64 mm | - | - | - |
* Rain latest hour (hover to see other rain measurements)
** Current wind speed in m/s (hover to see current wind gust speed)